Погода в Дубенском

Россия / Оренбургская область     51°27′09″N   56°38′02″E
темп.,
°C
ветер,
м/с
пор.,
м/с
влажн.,
%
обл.,
%
осадки,
мм/ч
давл.,
гПа
погр.,
м
22 апреля, чт
чт2223:00+7вюв3551100 0.0 103283
02:00+6юв3552100 0.0 1032133
05:00+5юв3759100 0.1 1033194
08:00+5вюв4861100 0.2 1034428
11:00+6ююв51056100 0.6 1034731
14:00+7ююв61061100 0.3 1034844
17:00+9юв4952100 0.4 1033952
20:00+7вюв2477100 0.8 1033133
23 апреля, пт
пт2323:00+5юв378898 2.1 1032288
02:00+6вюв6118298 0.1 1031349
05:00+6вюв6127597 0.1 1029304
08:00+8вюв51367100 0.0 1029488
11:00+12ююв6951100 0.0 1028906
14:00+12ююв8953100 0.0 10281331
17:00+9юв5875100 0.3 1028684
20:00+9вюв71375100 0.1 1026657
24 апреля, сб
сб2423:00+9в81668100 0.1 1023580
02:00+9вюв81762100 0.0 1020581
05:00+8вюв61267100 0.2 1018484
08:00+6вюв81388100 0.9 1016633
11:00+11юв101257100 1.4 10141080
14:00+13юв91048100 0.0 10121944
17:00+12в4650100 0.1 10121576
20:00+9сз3580100 0.6 1013191
25 апреля, вс
вс2523:00+7зсз5892100 0.8 1015548
02:00+7з499075 0.1 1016463
05:00+5зюз229411 0.1 101716
08:00+7ю2785100 0.0 1018244
11:00+11ююз597254 0.0 1017710
14:00+14з9145834 1.3 10171854
17:00+14з710405 1.3 10182015
20:00+11з23539 0.0 101938
26 апреля, пн
пн2623:00+10ю3358100 0.0 102037
02:00+8ююз2286100 0.0 102014
05:00+9ю3487100 0.0 102099
08:00+9с1196100 2.8 102026
11:00+9св3593100 4.8 1018262
14:00+14ю41166100 1.1 10141620
17:00+11ссв3484100 1.5 101381
20:00+10ссз3594100 0.7 1012147